[[{"header":{"parameterUnit":"m.s-1","parameterCategory":1,"la1":30.2991,"la2":30.254,"lo1":-89.0895,"lo2":-89.0444,"dy":0.0017,"dx":0.0017,"nx":28,"ny":28,"refTime":"2023-11-11T03:00:00:Z","depth":0,"parameterNumber":2,"parameterNumberName":"U-component_of_WINDS"},"data":[0,0,0,0,0,0,0,0,0,0,0,0,0,0,0,0,0,0,0,0,0,0,0,0,0,0,0,0,0,0,0,0,0,0,0,0,0,0,0,0,0,0,0,0,0,0,0,0,0,0,0,0,0,0,0,0,0,0,-3.2178,-3.2178,0,-3.2203,-3.2204,-3.2204,-3.2131,-3.2129,-3.2127,-3.2125,-3.2149,-3.2152,-3.2155,0,0,0,0,0,0,0,0,0,0,0,0,0,-3.2063,-3.2066,-3.2178,-3.2178,-3.2178,-3.2203,-3.2204,-3.2204,-3.2132,-3.2129,-3.2126,-3.2124,-3.2148,-3.2152,-3.2155,0,0,0,0,0,0,0,0,0,0,0,0,0,-3.2103,-3.2067,-3.2178,-3.2145,-3.2143,-3.2203,-3.2204,-3.2204,-3.2132,-3.2129,-3.2126,-3.2123,-3.2147,-3.2151,-3.2155,-3.2248,0,0,-3.2168,-3.217,0,0,0,0,0,0,0,0,-3.2101,-3.2108,-3.215,-3.2148,-3.2145,-3.2161,-3.2172,-3.2219,-3.2133,-3.2136,-3.2125,-3.2121,-3.2156,-3.2159,-3.2171,-3.2249,-3.225,-3.2168,-3.2171,-3.2173,-3.2174,0,0,0,0,0,0,0,-3.2099,-3.2106,-3.2188,-3.215,-3.2147,-3.2129,-3.2131,-3.2181,-3.2164,-3.2136,-3.2131,-3.2135,-3.2154,-3.2167,-3.2171,-3.225,-3.2168,-3.2172,-3.2174,-3.2176,-3.2405,-3.2409,0,0,0,0,0,0,-3.21,-3.2104,-3.2187,-3.2188,-3.2114,-3.2134,-3.2136,-3.2159,-3.2164,-3.2161,-3.2138,-3.2131,-3.2162,-3.2166,-3.2172,-3.2281,-3.2173,-3.2176,-3.2179,-3.2402,-3.2406,-3.241,0,0,0,0,0,0,-3.2098,-3.2108,-3.2186,-3.2145,-3.2153,-3.2139,-3.2166,-3.2161,-3.2175,-3.2165,-3.2162,-3.2155,-3.2159,-3.2166,-3.223,-3.2281,-3.2178,-3.2182,-3.2397,-3.2403,-3.2408,-3.2499,0,0,0,0,0,0,-3.2095,-3.2108,-3.2144,-3.2146,-3.2156,-3.2244,-3.2169,-3.2164,-3.2182,-3.2174,-3.218,-3.2178,-3.2157,-3.2224,-3.2234,-3.2284,-3.2185,-3.2393,-3.24,-3.2406,-3.2492,-3.2507,-3.2521,0,0,0,0,0,-3.2091,-3.2168,-3.2146,-3.2156,-3.22,-3.2247,-3.2253,-3.2228,-3.2187,-3.2222,-3.2216,-3.2178,-3.2273,-3.2231,-3.2241,-3.2294,-3.2389,-3.2398,-3.2406,-3.2485,-3.2504,-3.252,0,0,0,0,0,0,-3.2171,-3.2168,-3.2143,-3.2223,-3.2236,-3.2235,-3.2279,-3.2249,-3.2274,-3.2265,-3.2233,-3.2234,-3.2304,-3.2305,-3.2258,-3.2384,-3.2324,-3.2335,-3.2381,-3.2399,-3.2413,-3.2412,-3.2189,0,0,0,0,0,-3.2198,-3.2237,-3.2232,-3.2303,-3.231,-3.2294,-3.2313,-3.2293,-3.2305,-3.231,-3.2308,-3.2321,-3.2354,-3.2376,-3.2405,-3.2491,-3.2491,-3.2532,-3.2547,-3.2558,-3.2568,-3.2614,-3.2632,-3.2437,-3.2437,-3.2437,0,0,-3.2253,-3.2257,-3.2283,-3.2319,-3.2326,-3.2367,-3.2299,-3.2345,-3.2375,-3.2317,-3.2378,-3.2377,-3.2388,-3.2464,-3.2496,-3.2466,-3.2622,-3.2569,-3.2578,-3.2582,-3.2624,-3.2643,-3.2659,-3.2442,-3.2441,-3.244,0,0,-3.2376,-3.2383,-3.2443,-3.2452,-3.2465,-3.2453,-3.2468,-3.2471,-3.2469,-3.2529,-3.2487,-3.2521,-3.2578,-3.2588,-3.2601,-3.2727,-3.2694,-3.2738,-3.2813,-3.2858,-3.2874,-3.2887,-3.2933,-3.295,-3.2747,-3.2748,-3.2748,0,-3.2444,-3.2505,-3.2477,-3.2527,-3.2543,-3.2493,-3.2554,-3.2563,-3.2585,-3.2598,-3.2563,-3.2634,-3.2638,-3.2716,-3.2747,-3.2758,-3.2774,-3.2738,-3.2874,-3.2887,-3.2899,-3.2943,-3.296,-3.2753,-3.2752,-3.2752,-3.2751,0,-3.2588,-3.2631,-3.2677,-3.2701,-3.2722,-3.2777,-3.2757,-3.2782,-3.276,-3.2752,-3.2813,-3.2817,-3.2846,-3.2862,-3.2841,-3.2937,-3.2918,-3.2879,-3.2819,-3.2924,-3.2964,-3.298,-3.2761,-3.2759,-3.2757,-3.2756,0,0,-3.2763,-3.277,-3.2788,-3.2798,-3.2808,-3.284,-3.2892,-3.2922,-3.2944,-3.296,-3.3003,-3.3052,-3.3017,-3.3031,-3.301,-3.3049,-3.315,-3.3006,-3.3006,-3.3034,-3.3257,-3.3287,-3.3306,-3.3127,-3.313,-3.3133,-3.3256,0,-3.2885,-3.2976,-3.2952,-3.3042,-3.3081,-3.3033,-3.3078,-3.3089,-3.3082,-3.3114,-3.3106,-3.3142,-3.3092,-3.31,-3.3137,-3.313,-3.3195,-3.3121,-3.3167,-3.3169,-3.3167,-3.3327,-3.3359,-3.3476,-3.3271,-3.3274,-3.3276,0,-3.304,-3.3064,-3.3158,-3.3162,-3.3177,-3.3219,-3.3244,-3.3274,-3.3285,-3.3278,-3.3294,-3.3265,-3.3315,-3.3254,-3.3323,-3.3273,-3.329,-3.329,-3.3293,-3.3298,-3.323,-3.3337,-3.3512,-3.353,-3.33,-3.3298,-3.3297,0,-3.316,-3.3214,-3.3278,-3.3288,-3.3294,-3.3324,-3.3328,-3.3335,-3.3355,-3.3376,-3.3388,-3.3415,-3.343,-3.3451,-3.343,-3.3387,-3.3502,-3.3439,-3.3498,-3.3498,-3.3525,-3.3524,-3.3707,-3.3534,-3.3534,-3.3534,-3.3533,0,-3.33,-3.3359,-3.3332,-3.3371,-3.3436,-3.3408,-3.3473,-3.3471,-3.3478,-3.3515,-3.3475,-3.3511,-3.348,-3.3513,-3.3496,-3.3556,-3.3562,-3.3558,-3.3553,-3.3562,-3.3563,-3.3574,-3.3566,-3.3538,-3.3537,-3.3536,-3.3536,0,-3.3445,-3.3429,-3.3495,-3.3496,-3.3497,-3.3545,-3.3545,-3.3581,-3.3571,-3.3619,-3.3628,-3.3613,-3.3649,-3.363,-3.3667,-3.3656,-3.3734,-3.3717,-3.3731,-3.3727,-3.3787,-3.3783,-3.3984,-3.401,-3.382,-3.3822,-3.3824,0,-3.3536,-3.3581,-3.3586,-3.3609,-3.3616,-3.3653,-3.3672,-3.3645,-3.3667,-3.3683,-3.3717,-3.375,-3.3775,-3.3836,-3.3828,-3.3856,-3.384,-3.3909,-3.3844,-3.3853,-3.3843,-3.3841,-3.3846,-3.3923,-3.3925,-3.3927,-3.3928,0,-3.37,-3.369,-3.372,-3.3748,-3.3773,-3.3793,-3.381,-3.383,-3.3804,-3.383,-3.3868,-3.3887,-3.3926,-3.3959,-3.3984,-3.3986,-3.3953,-3.3948,-3.3964,-3.3974,-3.3981,-3.3979,-3.3768,-3.3944,-3.3943,-3.3941,-3.3941,-3.394,-3.3821,-3.3859,-3.3869,-3.3904,-3.3914,-3.3931,-3.3965,-3.3959,-3.399,-3.402,-3.4002,-3.4046,-3.4055,-3.4084,-3.4091,-3.4125,-3.4097,-3.4119,-3.4125,-3.4131,-3.414,-3.3975,-3.4129,-3.4129,-3.4128,-3.4128,-3.4127,0,-3.3984,-3.3988,-3.402,-3.4046,-3.4073,-3.404,-3.4056,-3.4082,-3.4121,-3.4133,-3.4159,-3.4202,-3.4234,-3.4228,-3.4257,-3.4285,-3.427,-3.4294,-3.4292,-3.4293,-3.4163,-3.4147,-3.4305,-3.4305,-3.4305,-3.4305,-3.4305,-3.4305,-3.4072,-3.4135,-3.4126,-3.4192,-3.4195,-3.4239,-3.4251,-3.4266,-3.4276,-3.4326,-3.4353,-3.4348,-3.4353,-3.4382,-3.441,-3.4407,-3.442,-3.4449,-3.4441,-3.432,-3.4302,-3.4286,-3.4271,-3.4452,-3.4452,-3.4569,-3.457,-3.4571]},{"header":{"parameterUnit":"m.s-1","parameterCategory":1,"la1":30.2991,"la2":30.254,"lo1":-89.0895,"lo2":-89.0444,"dy":0.0017,"dx":0.0017,"nx":28,"ny":28,"refTime":"2023-11-11T03:00:00:Z","depth":0,"parameterNumber":3,"parameterNumberName":"V-component_of_WINDS"},"data":[0,0,0,0,0,0,0,0,0,0,0,0,0,0,0,0,0,0,0,0,0,0,0,0,0,0,0,0,0,0,0,0,0,0,0,0,0,0,0,0,0,0,0,0,0,0,0,0,0,0,0,0,0,0,0,0,0,0,-3.314,-3.3141,0,-3.3207,-3.3208,-3.3209,-3.3196,-3.3195,-3.3193,-3.3192,-3.3257,-3.326,-3.3263,0,0,0,0,0,0,0,0,0,0,0,0,0,-3.2996,-3.2999,-3.314,-3.3141,-3.3142,-3.3207,-3.3208,-3.3209,-3.3196,-3.3195,-3.3193,-3.3192,-3.3256,-3.326,-3.3263,0,0,0,0,0,0,0,0,0,0,0,0,0,-3.306,-3.3,-3.314,-3.3143,-3.3144,-3.3207,-3.3208,-3.3209,-3.3196,-3.3195,-3.3193,-3.3191,-3.3255,-3.3259,-3.3264,-3.3326,0,0,-3.3277,-3.3278,0,0,0,0,0,0,0,0,-3.3057,-3.3066,-3.3142,-3.3143,-3.3144,-3.3191,-3.3181,-3.3248,-3.3197,-3.3176,-3.3192,-3.319,-3.3237,-3.3242,-3.3259,-3.3329,-3.3332,-3.3277,-3.328,-3.3281,-3.3283,0,0,0,0,0,0,0,-3.3052,-3.3063,-3.3166,-3.3143,-3.3144,-3.314,-3.3147,-3.3194,-3.3216,-3.3178,-3.3177,-3.3186,-3.3237,-3.3255,-3.326,-3.3332,-3.3277,-3.3281,-3.3283,-3.3285,-3.3456,-3.3458,0,0,0,0,0,0,-3.3047,-3.3059,-3.3164,-3.3168,-3.3095,-3.3144,-3.3152,-3.3178,-3.3215,-3.3219,-3.3187,-3.3185,-3.3248,-3.3255,-3.3262,-3.3337,-3.3281,-3.3285,-3.3288,-3.3454,-3.3457,-3.3459,0,0,0,0,0,0,-3.3044,-3.3057,-3.3161,-3.3114,-3.3127,-3.3148,-3.3178,-3.318,-3.3198,-3.3222,-3.3225,-3.3202,-3.3247,-3.3256,-3.331,-3.3339,-3.3287,-3.3291,-3.3452,-3.3455,-3.3458,-3.3488,0,0,0,0,0,0,-3.304,-3.3056,-3.3081,-3.3114,-3.3129,-3.321,-3.318,-3.3183,-3.3206,-3.3204,-3.3236,-3.324,-3.3246,-3.3304,-3.3314,-3.3344,-3.3294,-3.3449,-3.3453,-3.3457,-3.3485,-3.3492,-3.3498,0,0,0,0,0,-3.3035,-3.3086,-3.3082,-3.3095,-3.3161,-3.3211,-3.322,-3.3227,-3.3208,-3.3233,-3.3248,-3.3239,-3.3334,-3.331,-3.3321,-3.3353,-3.3448,-3.3452,-3.3457,-3.3482,-3.349,-3.3498,0,0,0,0,0,0,-3.3054,-3.309,-3.3087,-3.315,-3.3178,-3.3209,-3.3241,-3.3236,-3.3269,-3.3265,-3.3272,-3.3279,-3.3334,-3.3349,-3.332,-3.3415,-3.3388,-3.3395,-3.3403,-3.3412,-3.3418,-3.3414,-3.3298,0,0,0,0,0,-3.3066,-3.3105,-3.3134,-3.3187,-3.3201,-3.3219,-3.3241,-3.3244,-3.3273,-3.3284,-3.3303,-3.333,-3.3366,-3.339,-3.3424,-3.3487,-3.3493,-3.3514,-3.3521,-3.3526,-3.3532,-3.3565,-3.3575,-3.3474,-3.3474,-3.3473,0,0,-3.309,-3.3115,-3.3139,-3.3191,-3.3213,-3.3253,-3.3229,-3.3271,-3.33,-3.329,-3.3343,-3.3357,-3.3388,-3.3446,-3.3473,-3.346,-3.3561,-3.3532,-3.3536,-3.3539,-3.3571,-3.3581,-3.3589,-3.3477,-3.3476,-3.3476,0,0,-3.3154,-3.3177,-3.3224,-3.3247,-3.3281,-3.3292,-3.3303,-3.3335,-3.3345,-3.3398,-3.3391,-3.3425,-3.3487,-3.3509,-3.3528,-3.36,-3.3593,-3.3611,-3.3646,-3.3678,-3.3686,-3.3694,-3.3719,-3.3728,-3.3617,-3.3617,-3.3617,0,-3.318,-3.324,-3.3248,-3.3292,-3.3315,-3.3309,-3.3355,-3.3376,-3.3419,-3.3434,-3.342,-3.3498,-3.3518,-3.3581,-3.3599,-3.3614,-3.3626,-3.3607,-3.3685,-3.3692,-3.3699,-3.3723,-3.3733,-3.3619,-3.3619,-3.3618,-3.3618,0,-3.327,-3.3311,-3.3345,-3.3388,-3.3414,-3.3459,-3.3473,-3.3498,-3.3499,-3.3511,-3.3564,-3.3588,-3.3627,-3.3642,-3.3643,-3.3706,-3.3697,-3.3684,-3.3657,-3.371,-3.3733,-3.3743,-3.3622,-3.3621,-3.362,-3.362,0,0,-3.3348,-3.3395,-3.3407,-3.3427,-3.3464,-3.3495,-3.3539,-3.3579,-3.36,-3.363,-3.3666,-3.3718,-3.3707,-3.3728,-3.3731,-3.376,-3.3815,-3.3743,-3.3744,-3.3755,-3.3885,-3.3895,-3.3906,-3.381,-3.3812,-3.3813,-3.3882,0,-3.3416,-3.3495,-3.3503,-3.3574,-3.3612,-3.3606,-3.3644,-3.367,-3.3682,-3.3715,-3.3728,-3.3765,-3.3747,-3.376,-3.3788,-3.3802,-3.3841,-3.3797,-3.3843,-3.3845,-3.3836,-3.3918,-3.3928,-3.3992,-3.3891,-3.3893,-3.3894,0,-3.3506,-3.354,-3.3614,-3.3646,-3.3662,-3.3696,-3.3733,-3.3765,-3.3793,-3.38,-3.3824,-3.3823,-3.3867,-3.3839,-3.3898,-3.3869,-3.3887,-3.3897,-3.39,-3.3904,-3.3873,-3.3924,-3.4013,-3.4022,-3.3908,-3.3907,-3.3906,0,-3.3556,-3.3619,-3.3672,-3.3689,-3.3727,-3.3751,-3.3767,-3.3795,-3.3818,-3.3849,-3.3864,-3.3899,-3.3919,-3.3945,-3.3953,-3.3932,-3.4013,-3.3985,-3.4019,-3.4019,-3.4036,-3.4035,-3.4129,-3.4048,-3.4048,-3.4048,-3.4048,0,-3.3631,-3.3677,-3.3695,-3.3728,-3.3778,-3.3786,-3.3836,-3.3851,-3.3875,-3.3909,-3.3905,-3.3937,-3.3946,-3.3979,-3.3985,-3.4033,-3.4042,-3.4048,-3.4049,-3.4049,-3.4048,-3.4061,-3.4057,-3.405,-3.405,-3.4049,-3.4049,0,-3.3695,-3.371,-3.3767,-3.3798,-3.3807,-3.3843,-3.3869,-3.39,-3.3911,-3.3954,-3.3965,-3.3983,-3.4021,-3.4032,-3.4078,-3.4082,-3.4139,-3.4136,-3.413,-3.413,-3.4163,-3.4159,-3.4268,-3.4283,-3.4193,-3.4193,-3.4194,0,-3.3742,-3.3778,-3.3813,-3.3837,-3.3855,-3.3892,-3.3916,-3.3925,-3.3949,-3.3984,-3.401,-3.4049,-3.408,-3.4142,-3.4158,-3.4193,-3.419,-3.4226,-3.4196,-3.4194,-3.4191,-3.4189,-3.4192,-3.4232,-3.4233,-3.4234,-3.4234,0,-3.3825,-3.383,-3.3865,-3.3903,-3.3932,-3.3962,-3.399,-3.4009,-3.4021,-3.4049,-3.4089,-3.4113,-3.4161,-3.4199,-3.4234,-3.4249,-3.4244,-3.4244,-3.4254,-3.4253,-3.4249,-3.4252,-3.4146,-3.4241,-3.4241,-3.424,-3.424,-3.424,-3.3882,-3.3913,-3.3943,-3.3982,-3.4004,-3.4031,-3.4061,-3.4077,-3.4111,-3.4151,-3.4154,-3.4197,-3.4224,-3.4271,-3.4288,-3.4321,-3.4311,-3.4324,-3.4328,-3.4331,-3.4334,-3.4243,-3.4328,-3.4327,-3.4327,-3.4327,-3.4327,0,-3.3964,-3.3983,-3.4019,-3.4059,-3.409,-3.4083,-3.4114,-3.414,-3.4178,-3.4204,-3.4236,-3.4281,-3.4318,-3.4337,-3.4373,-3.4396,-3.4394,-3.4405,-3.4403,-3.4407,-3.4342,-3.433,-3.4405,-3.4405,-3.4405,-3.4405,-3.4405,-3.4405,-3.401,-3.4062,-3.4071,-3.4134,-3.4152,-3.4196,-3.4214,-3.4238,-3.4259,-3.431,-3.4341,-3.4354,-3.4377,-3.4414,-3.4447,-3.4451,-3.4465,-3.4477,-3.448,-3.4419,-3.4411,-3.4404,-3.4393,-3.448,-3.448,-3.4542,-3.4543,-3.4543]}]]